KRF69R LFPG-EGLL

Flight info

Callsign KRF69R
Flight time 0h 41m
Altitude 32000
Route OPALE DCT KESAX DCT DIMAL DCT ALESO
Aircraft A339/H-SADE1E2E3GHIJ3J5M1P2RWXY/LB2D1

Departure

Time 2026-05-05 19:43
Airport Charles de Gaulle International Airport (LFPG)

Arrival

Time 2026-05-05 20:24
Airport London Heathrow Airport (EGLL)
Time Latitude Longitude Altitude Speed Heading
2026-05-05 19:11 49.01148 2.53623 365 ft 0 kts 206°
2026-05-05 19:29 49.01151 2.53625 360 ft 1 kts 206°
2026-05-05 19:29 49.01165 2.53636 367 ft 3 kts 207°
2026-05-05 19:30 49.01182 2.53648 362 ft 3 kts 212°
2026-05-05 19:30 49.01196 2.53664 362 ft 3 kts 225°
2026-05-05 19:30 49.01210 2.53686 366 ft 3 kts 246°
2026-05-05 19:30 49.01215 2.53716 363 ft 3 kts 283°
2026-05-05 19:31 49.01212 2.53734 367 ft 0 kts 315°
2026-05-05 19:35 49.01215 2.53730 366 ft 1 kts 315°
2026-05-05 19:35 49.01219 2.53723 363 ft 0 kts 315°
2026-05-05 19:36 49.01224 2.53716 362 ft 4 kts 315°
2026-05-05 19:36 49.01248 2.53687 363 ft 3 kts 325°
2026-05-05 19:36 49.01326 2.53637 365 ft 19 kts 341°
2026-05-05 19:36 49.01434 2.53606 363 ft 13 kts 354°
2026-05-05 19:37 49.01511 2.53605 364 ft 9 kts
2026-05-05 19:37 49.01574 2.53596 364 ft 10 kts 347°
2026-05-05 19:37 49.01632 2.53557 364 ft 10 kts 324°
2026-05-05 19:37 49.01670 2.53468 367 ft 13 kts 292°
2026-05-05 19:38 49.01675 2.53327 366 ft 13 kts 265°
2026-05-05 19:38 49.01670 2.53209 363 ft 9 kts 266°
2026-05-05 19:38 49.01665 2.53115 360 ft 10 kts 265°
2026-05-05 19:38 49.01660 2.53020 360 ft 8 kts 265°
2026-05-05 19:39 49.01656 2.52950 366 ft 6 kts 265°
2026-05-05 19:39 49.01654 2.52914 364 ft 0 kts 265°
2026-05-05 19:39 49.01653 2.52893 360 ft 6 kts 265°
2026-05-05 19:40 49.01648 2.52796 362 ft 11 kts 264°
2026-05-05 19:40 49.01660 2.52679 366 ft 11 kts 303°
2026-05-05 19:40 49.01712 2.52582 367 ft 12 kts 299°
2026-05-05 19:40 49.01721 2.52451 365 ft 13 kts 270°
2026-05-05 19:41 49.01711 2.52307 365 ft 14 kts 264°
2026-05-05 19:41 49.01729 2.52165 364 ft 14 kts 315°
2026-05-05 19:41 49.01821 2.52132 364 ft 14 kts 353°
2026-05-05 19:41 49.01909 2.52123 360 ft 10 kts 356°
2026-05-05 19:42 49.01984 2.52114 365 ft 12 kts 354°
2026-05-05 19:42 49.02069 2.52102 365 ft 12 kts 355°
2026-05-05 19:42 49.02107 2.52178 365 ft 10 kts 78°
2026-05-05 19:42 49.02124 2.52430 361 ft 58 kts 85°
2026-05-05 19:43 49.02179 2.53456 365 ft 134 kts 84°
2026-05-05 19:43 49.02282 2.55128 544 ft 170 kts 82°
2026-05-05 19:43 49.02370 2.56852 1459 ft 160 kts 81°
2026-05-05 19:43 49.02448 2.58514 2340 ft 158 kts 81°
2026-05-05 19:44 49.02543 2.60269 2903 ft 175 kts 81°
2026-05-05 19:44 49.02655 2.62254 3342 ft 201 kts 82°
2026-05-05 19:44 49.02779 2.64494 3922 ft 223 kts 83°
2026-05-05 19:44 49.02913 2.66969 4424 ft 246 kts 84°
2026-05-05 19:45 49.03054 2.69666 4961 ft 261 kts 84°
2026-05-05 19:45 49.03195 2.72353 6115 ft 247 kts 82°
2026-05-05 19:45 49.03706 2.74713 7221 ft 234 kts 57°
2026-05-05 19:45 49.04833 2.76493 8057 ft 238 kts 30°
2026-05-05 19:46 49.06384 2.77246 8980 ft 236 kts
2026-05-05 19:46 49.08021 2.76867 9714 ft 244 kts 336°
2026-05-05 19:46 49.09512 2.75530 10280 ft 256 kts 328°
2026-05-05 19:46 49.11087 2.74025 10589 ft 278 kts 328°
2026-05-05 19:47 49.12803 2.72406 10859 ft 302 kts 328°
2026-05-05 19:47 49.14660 2.70671 11152 ft 324 kts 328°
2026-05-05 19:47 49.16648 2.68821 11503 ft 343 kts 328°
2026-05-05 19:47 49.18461 2.67138 12225 ft 346 kts 328°
2026-05-05 19:48 49.20527 2.65220 13085 ft 350 kts 329°
2026-05-05 19:48 49.22614 2.63248 13640 ft 362 kts 327°
2026-05-05 19:48 49.24660 2.61004 14423 ft 364 kts 325°
2026-05-05 19:48 49.26726 2.58744 15199 ft 367 kts 325°
2026-05-05 19:49 49.28818 2.56467 15994 ft 369 kts 325°
2026-05-05 19:49 49.30205 2.54955 16513 ft 371 kts 324°
2026-05-05 19:49 49.33043 2.51856 17496 ft 376 kts 324°
2026-05-05 19:49 49.35180 2.49516 18233 ft 380 kts 324°
2026-05-05 19:50 49.37347 2.47139 18677 ft 385 kts 324°
2026-05-05 19:50 49.39525 2.44745 18817 ft 385 kts 324°
2026-05-05 19:50 49.41677 2.42377 18857 ft 386 kts 324°
2026-05-05 19:50 49.43858 2.39975 18865 ft 386 kts 324°
2026-05-05 19:51 49.46043 2.37565 19104 ft 389 kts 324°
2026-05-05 19:51 49.48245 2.35132 19811 ft 390 kts 324°
2026-05-05 19:51 49.50449 2.32694 20568 ft 392 kts 324°
2026-05-05 19:51 49.52693 2.30208 20973 ft 404 kts 325°
2026-05-05 19:52 49.54983 2.27671 21729 ft 405 kts 324°
2026-05-05 19:52 49.57282 2.25120 22386 ft 411 kts 325°
2026-05-05 19:52 49.59611 2.22531 23228 ft 411 kts 325°
2026-05-05 19:52 49.61920 2.19964 24085 ft 410 kts 326°
2026-05-05 19:53 49.64252 2.17369 24523 ft 418 kts 325°
2026-05-05 19:53 49.66617 2.14733 24747 ft 420 kts 326°
2026-05-05 19:53 49.68974 2.12099 24851 ft 421 kts 325°
2026-05-05 19:53 49.71325 2.09480 24859 ft 421 kts 327°
2026-05-05 19:54 49.73817 2.07005 24864 ft 420 kts 328°
2026-05-05 19:54 49.76240 2.04589 24878 ft 419 kts 328°
2026-05-05 19:54 49.78689 2.02144 24876 ft 419 kts 328°
2026-05-05 19:54 49.81140 1.99704 24885 ft 418 kts 328°
2026-05-05 19:55 49.83588 1.97271 24887 ft 420 kts 328°
2026-05-05 19:55 49.86094 1.94783 24884 ft 434 kts 328°
2026-05-05 19:55 49.88640 1.92254 24886 ft 434 kts 328°
2026-05-05 19:55 49.91176 1.89732 24888 ft 432 kts 328°
2026-05-05 19:56 49.93709 1.87211 24893 ft 433 kts 328°
2026-05-05 19:56 49.96241 1.84689 24891 ft 433 kts 327°
2026-05-05 19:56 49.98746 1.82192 24892 ft 435 kts 327°
2026-05-05 19:56 50.01301 1.79640 24897 ft 437 kts 327°
2026-05-05 19:57 50.03855 1.77084 24898 ft 437 kts 327°
2026-05-05 19:57 50.05545 1.75389 24902 ft 437 kts 327°
2026-05-05 19:57 50.08951 1.71972 24901 ft 436 kts 327°
2026-05-05 19:57 50.11496 1.69414 24900 ft 434 kts 327°
2026-05-05 19:58 50.14034 1.66861 24899 ft 435 kts 327°
2026-05-05 19:58 50.16582 1.64295 24905 ft 436 kts 327°
2026-05-05 19:58 50.19132 1.61723 24898 ft 438 kts 327°
2026-05-05 19:58 50.21698 1.59133 24907 ft 439 kts 327°
2026-05-05 19:59 50.24254 1.56548 24911 ft 437 kts 327°
2026-05-05 19:59 50.26797 1.53973 24910 ft 434 kts 327°
2026-05-05 19:59 50.29340 1.51395 24903 ft 438 kts 327°
2026-05-05 19:59 50.31863 1.48833 24910 ft 437 kts 327°
2026-05-05 20:00 50.34405 1.46249 24915 ft 438 kts 327°
2026-05-05 20:00 50.36959 1.43651 24909 ft 438 kts 327°
2026-05-05 20:00 50.39508 1.41054 24911 ft 437 kts 327°
2026-05-05 20:00 50.42054 1.38454 24916 ft 436 kts 327°
2026-05-05 20:01 50.44577 1.35876 24909 ft 430 kts 327°
2026-05-05 20:01 50.47075 1.33319 24915 ft 429 kts 327°
2026-05-05 20:01 50.49582 1.30750 24914 ft 431 kts 327°
2026-05-05 20:01 50.52092 1.28175 24916 ft 431 kts 327°
2026-05-05 20:02 50.54598 1.25601 24911 ft 430 kts 327°
2026-05-05 20:02 50.57055 1.22918 24917 ft 431 kts 322°
2026-05-05 20:02 50.59308 1.19808 24913 ft 431 kts 315°
2026-05-05 20:02 50.61384 1.16488 24822 ft 432 kts 315°
2026-05-05 20:03 50.63504 1.13139 24585 ft 431 kts 315°
2026-05-05 20:03 50.65615 1.09819 24345 ft 427 kts 315°
2026-05-05 20:03 50.67696 1.06538 24112 ft 422 kts 315°
2026-05-05 20:03 50.69758 1.03278 23883 ft 421 kts 315°
2026-05-05 20:04 50.71824 1.00002 23651 ft 421 kts 315°
2026-05-05 20:04 50.73885 0.96729 23388 ft 420 kts 315°
2026-05-05 20:04 50.75944 0.93452 22966 ft 420 kts 315°
2026-05-05 20:04 50.77985 0.90196 22380 ft 419 kts 316°
2026-05-05 20:05 50.80038 0.86920 21713 ft 419 kts 315°
2026-05-05 20:05 50.82087 0.83649 21055 ft 419 kts 315°
2026-05-05 20:05 50.84133 0.80375 20419 ft 418 kts 315°
2026-05-05 20:05 50.86173 0.77108 19796 ft 417 kts 316°
2026-05-05 20:06 50.88178 0.73891 19202 ft 415 kts 315°
2026-05-05 20:06 50.90200 0.70644 18626 ft 414 kts 315°
2026-05-05 20:06 50.92215 0.67401 18023 ft 412 kts 316°
2026-05-05 20:06 50.94216 0.64177 17370 ft 409 kts 316°
2026-05-05 20:07 50.96207 0.60967 16745 ft 407 kts 315°
2026-05-05 20:07 50.98181 0.57778 16109 ft 404 kts 315°
2026-05-05 20:07 50.99482 0.55676 15708 ft 402 kts 315°
2026-05-05 20:07 51.02080 0.51465 14886 ft 397 kts 315°
2026-05-05 20:08 51.03980 0.48387 14314 ft 393 kts 315°
2026-05-05 20:08 51.05885 0.45307 13731 ft 389 kts 315°
2026-05-05 20:08 51.07790 0.42295 13081 ft 385 kts 316°
2026-05-05 20:08 51.09710 0.39368 12437 ft 381 kts 317°
2026-05-05 20:09 51.11085 0.37286 11991 ft 378 kts 317°
2026-05-05 20:09 51.12340 0.35384 11716 ft 371 kts 317°
2026-05-05 20:09 51.14206 0.32544 11226 ft 364 kts 317°
2026-05-05 20:09 51.15999 0.29800 10601 ft 361 kts 317°
2026-05-05 20:10 51.17803 0.27028 9969 ft 359 kts 317°
2026-05-05 20:10 51.19588 0.24280 9248 ft 352 kts 317°
2026-05-05 20:10 51.21314 0.21627 8561 ft 338 kts 317°
2026-05-05 20:10 51.22978 0.19067 7895 ft 328 kts 317°
2026-05-05 20:11 51.24616 0.16550 7343 ft 324 kts 317°
2026-05-05 20:11 51.26204 0.14107 7125 ft 310 kts 317°
2026-05-05 20:11 51.27747 0.11732 7044 ft 310 kts 317°
2026-05-05 20:11 51.29287 0.09326 7028 ft 310 kts 316°
2026-05-05 20:12 51.30776 0.06834 6957 ft 310 kts 315°
2026-05-05 20:12 51.32251 0.04307 6618 ft 310 kts 314°
2026-05-05 20:12 51.33679 0.01846 6001 ft 309 kts 314°
2026-05-05 20:12 51.35116 -0.00691 5357 ft 307 kts 309°
2026-05-05 20:13 51.36042 -0.03749 4738 ft 309 kts 285°
2026-05-05 20:13 51.36240 -0.07165 4245 ft 307 kts 272°
2026-05-05 20:13 51.36250 -0.10598 4066 ft 310 kts 271°
2026-05-05 20:13 51.36250 -0.14046 4020 ft 309 kts 272°
2026-05-05 20:14 51.36272 -0.17485 4020 ft 309 kts 272°
2026-05-05 20:14 51.36313 -0.20919 4019 ft 309 kts 273°
2026-05-05 20:14 51.36366 -0.24311 3834 ft 307 kts 273°
2026-05-05 20:14 51.36424 -0.27713 3361 ft 305 kts 273°
2026-05-05 20:15 51.36482 -0.31097 3108 ft 306 kts 273°
2026-05-05 20:15 51.36541 -0.34462 3023 ft 306 kts 273°
2026-05-05 20:15 51.36598 -0.37871 3023 ft 307 kts 273°
2026-05-05 20:15 51.36653 -0.41282 3023 ft 307 kts 273°
2026-05-05 20:16 51.36709 -0.44696 3024 ft 306 kts 272°
2026-05-05 20:16 51.36762 -0.48101 3030 ft 307 kts 272°
2026-05-05 20:16 51.36815 -0.51508 3021 ft 306 kts 272°
2026-05-05 20:16 51.36866 -0.54918 3023 ft 307 kts 272°
2026-05-05 20:17 51.36916 -0.58333 3027 ft 307 kts 273°
2026-05-05 20:17 51.36966 -0.61750 3020 ft 307 kts 272°
2026-05-05 20:17 51.37015 -0.65159 3024 ft 306 kts 272°
2026-05-05 20:17 51.37062 -0.68571 3016 ft 306 kts 272°
2026-05-05 20:18 51.37108 -0.71932 2951 ft 298 kts 272°
2026-05-05 20:18 51.37180 -0.75115 2810 ft 282 kts 279°
2026-05-05 20:18 51.37810 -0.77930 2622 ft 259 kts 306°
2026-05-05 20:18 51.39027 -0.79842 2524 ft 235 kts 331°
2026-05-05 20:19 51.40470 -0.80721 2526 ft 212 kts 353°
2026-05-05 20:19 51.41932 -0.80706 2521 ft 212 kts 13°
2026-05-05 20:19 51.43286 -0.79862 2509 ft 207 kts 33°
2026-05-05 20:19 51.44324 -0.78382 2526 ft 197 kts 49°
2026-05-05 20:20 51.45245 -0.76742 2529 ft 197 kts 49°
2026-05-05 20:20 51.45934 -0.74907 2509 ft 185 kts 69°
2026-05-05 20:20 51.46209 -0.72956 2521 ft 179 kts 82°
2026-05-05 20:20 51.46298 -0.70981 2525 ft 180 kts 86°
2026-05-05 20:21 51.46323 -0.68990 2519 ft 179 kts 88°
2026-05-05 20:21 51.46338 -0.66983 2449 ft 181 kts 88°
2026-05-05 20:21 51.46351 -0.64981 2201 ft 179 kts 88°
2026-05-05 20:21 51.46363 -0.63061 1956 ft 162 kts 88°
2026-05-05 20:22 51.46375 -0.61343 1742 ft 153 kts 88°
2026-05-05 20:22 51.46387 -0.59625 1526 ft 148 kts 88°
2026-05-05 20:22 51.46397 -0.58047 1340 ft 143 kts 88°
2026-05-05 20:22 51.46408 -0.56465 1134 ft 137 kts 89°
2026-05-05 20:23 51.46418 -0.54921 954 ft 143 kts 88°
2026-05-05 20:23 51.46428 -0.53361 766 ft 141 kts 88°
2026-05-05 20:23 51.46438 -0.51788 569 ft 141 kts 88°
2026-05-05 20:23 51.46447 -0.50222 338 ft 142 kts 87°
2026-05-05 20:24 51.46459 -0.48649 167 ft 140 kts 86°
2026-05-05 20:24 51.46483 -0.47163 95 ft 113 kts 88°
2026-05-05 20:24 51.46488 -0.46154 93 ft 73 kts 90°
2026-05-05 20:24 51.46489 -0.45416 92 ft 45 kts 90°
2026-05-05 20:25 51.46448 -0.45024 94 ft 34 kts 109°
2026-05-05 20:25 51.46342 -0.44875 92 ft 0 kts 184°
2026-05-05 20:25 51.46337 -0.44874 92 ft 2 kts 180°
2026-05-05 20:25 51.46330 -0.44867 92 ft 0 kts 163°
2026-05-05 20:26 51.46329 -0.44868 93 ft 0 kts 166°
2026-05-05 20:26 51.46324 -0.44872 93 ft 1 kts 184°
2026-05-05 20:26 51.46319 -0.44880 93 ft 1 kts 206°
2026-05-05 20:26 51.46318 -0.44904 95 ft 2 kts 258°
2026-05-05 20:27 51.46318 -0.44940 95 ft 4 kts 268°
2026-05-05 20:27 51.46316 -0.45004 95 ft 7 kts 268°
2026-05-05 20:27 51.46315 -0.45093 96 ft 9 kts 269°
2026-05-05 20:27 51.46285 -0.45185 92 ft 11 kts 228°
2026-05-05 20:28 51.46223 -0.45274 94 ft 12 kts 223°
2026-05-05 20:28 51.46199 -0.45393 93 ft 9 kts 263°
2026-05-05 20:28 51.46210 -0.45498 94 ft 10 kts 283°
2026-05-05 20:28 51.46231 -0.45605 94 ft 9 kts 288°
2026-05-05 20:29 51.46239 -0.45648 93 ft 1 kts 288°
2026-05-05 20:29 51.46242 -0.45664 94 ft 0 kts 287°